Stations météo

réclame
Mon MeteoGroup
Norderney, Allemagne (10113): Température de l'air & dewpoint: 12.11.2018 17:00:00 - 18.11.2018 17:00:00 (CET)Norderney, Allemagne (10113): Température de l'air 5cm & Température de l'air -5cm: 12.11.2018 17:00:00 - 18.11.2018 17:00:00 (CET)Norderney, Allemagne (10113): Température de l'air -20cm & Température de l'air -100cm: 12.11.2018 17:00:00 - 18.11.2018 17:00:00 (CET)Norderney, Allemagne (10113): Vitesse du vent & gusts: 12.11.2018 17:00:00 - 18.11.2018 17:00:00 (CET)Norderney, Allemagne (10113): Direction du vent: 12.11.2018 17:00:00 - 18.11.2018 17:00:00 (CET)Norderney, Allemagne (10113): reduced air pressure: 12.11.2018 17:00:00 - 18.11.2018 17:00:00 (CET)Norderney, Allemagne (10113): visibility: 12.11.2018 17:00:00 - 18.11.2018 17:00:00 (CET)Norderney, Allemagne (10113): Ensoleillement: 12.11.2018 17:00:00 - 18.11.2018 17:00:00 (CET)Norderney, Allemagne (10113): Quantités de précipitations: 12.11.2018 17:00:00 - 18.11.2018 17:00:00 (CET)
Date & Time tt [°C] td [°C] tt 5cm [°C] tt -5cm [°C] tt -20cm [°C] tt -100cm [°C] ff [km/h] ff [knt] fx [km/h] fx [knt] dd ppp [hPa] vv [km] sd [min] rr [mm]
18.11.2018 17:00:00 6,7 3,6 6,4 5,7 5,6 10,2 20 11 36 19 E 1031,7 25 8 0,0
18.11.2018 16:00:00 6,6 3,3 6,5 6,1 5,4 10,2 16 8 34 18 E 1032,0 20 47 0,0
18.11.2018 15:00:00 7,1 3,8 7,3 6,6 5,1 10,2 20 11 34 19 E 1032,5 14 46 0,0
18.11.2018 14:00:00 7,5 3,8 7,9 6,7 4,6 10,2 19 10 31 17 E 1033,0 14 59 0,0
18.11.2018 13:00:00 8,4 0,8 9,4 6,0 4,1 10,2 14 7 27 14 E 1033,7 48 60 0,0
18.11.2018 12:00:00 8,2 0,9 9,1 4,8 3,6 10,3 15 8 24 13 E 1034,3 40 60 0,0
18.11.2018 11:00:00 6,8 1,1 7,7 2,8 3,3 10,3 10 6 19 11 E 1034,8 38 52 0,0
18.11.2018 10:00:00 6,2 -2,6 6,9 0,8 3,3 10,3 11 6 22 12 E 1035,2 40 51 0,0
18.11.2018 09:00:00 3,8 -1,9 2,4 0,8 3,4 10,3 12 7 19 10 E 1035,1 40 0 0,0
18.11.2018 08:00:00 2,6 -0,3 1,1 0,8 3,5 10,3 13 7 19 10 E 1035,3 21 0 0,0
18.11.2018 07:00:00 2,4 -0,4 0,8 0,8 3,6 10,4 11 6 22 12 ESE 1034,5 17 0 0,0
18.11.2018 06:00:00 1,9 -0,6 0,6 0,9 3,7 10,4 16 9 23 12 E 1035,2 16 0 0,0
18.11.2018 05:00:00 2,3 -0,4 0,9 1,0 3,8 10,4 16 8 28 15 E 1035,1 16 0 0,0
18.11.2018 04:00:00 2,1 -0,9 0,8 1,0 3,9 10,4 15 8 26 14 E 1035,6 20 0 0,0
18.11.2018 03:00:00 1,6 -1,8 0,2 1,1 4,1 10,4 13 7 24 13 E 1035,8 23 0 0,0
18.11.2018 02:00:00 1,6 -1,6 0,1 1,2 4,3 10,4 13 7 26 14 E 1035,9 21 0 0,0
18.11.2018 01:00:00 1,9 -1,2 0,5 1,3 4,5 10,5 12 7 27 15 ESE 1035,9 21 0 0,0
18.11.2018 00:00:00 2,2 -0,6 0,9 1,7 4,7 10,5 16 9 26 14 ESE 1035,9 17 0 0,0
17.11.2018 23:00:00 2,6 -0,2 1,2 2,0 4,9 10,5 14 8 26 14 E 1036,0 16 0 0,0
17.11.2018 22:00:00 2,9 0,2 1,6 2,4 5,1 10,5 13 7 33 18 ESE 1036,0 15 0 0,0
17.11.2018 21:00:00 4,2 1,2 2,8 2,9 5,3 10,5 17 9 34 18 ESE 1035,9 16 0 0,0
17.11.2018 20:00:00 4,8 1,8 3,5 3,2 5,5 10,6 17 9 31 17 E 1036,0 15 0 0,0
17.11.2018 19:00:00 4,9 2,3 3,5 3,5 5,7 10,6 15 8 29 16 E 1036,4 13 0 0,0
17.11.2018 18:00:00 4,8 2,3 3,5 3,9 5,9 10,6 15 8 29 15 E 1036,0 14 0 0,0
17.11.2018 17:00:00 5,1 2,5 3,8 4,6 6,0 10,6 14 8 27 15 E 1036,0 15 27 0,0
17.11.2018 16:00:00 6,0 2,2 5,4 5,7 6,0 10,6 15 8 29 15 E 1035,9 19 60 0,0
17.11.2018 15:00:00 6,9 2,4 7,1 6,6 5,8 10,6 19 11 31 17 ESE 1035,7 22 57 0,0
17.11.2018 14:00:00 6,9 2,4 7,7 6,6 5,5 10,7 18 10 33 18 ESE 1035,6 22 60 0,0
17.11.2018 13:00:00 6,4 2,2 7,5 6,0 5,1 10,7 19 10 34 19 ESE 1035,8 19 60 0,0
17.11.2018 12:00:00 5,4 1,9 6,5 4,9 4,8 10,7 22 12 35 19 ESE 1035,9 20 60 0,0
17.11.2018 11:00:00 4,4 1,7 5,4 3,7 4,6 10,7 19 10 30 16 ESE 1035,9 17 60 0,0
17.11.2018 10:00:00 3,2 1,2 3,7 2,5 4,6 10,7 16 9 29 16 ESE 1035,6 16 60 0,0
17.11.2018 09:00:00 2,5 0,9 1,8 1,9 4,7 10,7 16 9 29 16 ESE 1035,2 13 26 0,0
17.11.2018 08:00:00 2,5 0,9 1,4 2,0 4,9 10,8 19 10 31 17 ESE 1035,0 15 0 0,0
17.11.2018 07:00:00 2,6 0,9 1,4 2,2 5,0 10,8 18 10 34 18 ESE 1034,6 16 0 0,0
17.11.2018 06:00:00 3,1 1,2 2,0 2,3 5,2 10,8 18 10 32 17 ESE 1034,2 19 0 0,0
17.11.2018 05:00:00 3,2 1,5 1,9 2,6 5,4 10,8 18 10 28 15 ESE 1034,3 16 0 0,0
17.11.2018 04:00:00 3,5 1,7 2,2 2,8 5,6 10,8 16 9 30 16 ESE 1034,4 16 0 0,0
17.11.2018 03:00:00 3,9 2,0 2,6 3,0 5,7 10,8 19 10 28 15 ESE 1034,2 14 0 0,0
17.11.2018 02:00:00 4,0 2,2 2,7 3,2 5,9 10,8 15 8 23 13 ESE 1033,7 12 0 0,0
17.11.2018 01:00:00 4,3 2,2 2,9 3,6 6,1 10,8 15 8 26 14 SE 1033,4 12 0 0,0
17.11.2018 00:00:00 4,8 2,3 3,5 3,9 6,3 10,8 17 9 27 15 SE 1033,3 15 0 0,0
16.11.2018 23:00:00 5,3 2,6 4,1 4,3 6,5 10,9 19 10 30 16 SE 1032,7 14 0 0,0
16.11.2018 22:00:00 5,7 2,9 4,6 4,6 6,6 10,9 18 10 35 19 SE 1032,1 15 0 0,0
16.11.2018 21:00:00 6,5 3,5 5,4 4,8 6,8 10,9 22 12 32 18 SE 1031,9 17 0 0,0
16.11.2018 20:00:00 6,4 4,0 4,9 4,9 6,9 10,9 13 7 20 11 SE 1031,7 17 0 0,0
16.11.2018 19:00:00 6,6 4,4 5,3 5,3 7,1 10,9 13 7 26 14 ESE 1031,5 16 0 0,0
16.11.2018 18:00:00 7,0 4,8 5,7 5,6 7,3 10,9 14 8 23 13 ESE 1031,1 14 0 0,0
16.11.2018 17:00:00 7,0 4,9 5,8 6,2 7,4 10,9 13 7 21 12 ESE 1031,0 14 25 0,0
16.11.2018 16:00:00 7,3 4,7 6,9 7,2 7,4 10,9 11 6 18 10 ESE 1030,8 17 59 0,0
16.11.2018 15:00:00 7,4 4,8 8,2 8,1 7,2 11,0 9 5 16 9 E 1030,9 17 58 0,0
16.11.2018 14:00:00 6,1 4,7 7,6 7,9 6,9 11,0 8 4 12 6 ESE 1030,9 13 60 0,0
16.11.2018 13:00:00 4,8 4,2 6,3 6,9 6,7 11,0 6 4 10 6 SSE 1030,6 8 28 0,0
16.11.2018 12:00:00 3,9 3,9 5,2 6,3 6,6 11,0 5 3 16 9 SSE 1030,8 6 1 0,0
16.11.2018 11:00:00 2,8 2,8 3,4 5,4 6,5 11,0 13 7 22 12 SE 1030,4 0,5 0 0,0
16.11.2018 10:00:00 2,5 2,5 2,9 5,1 6,6 11,0 13 7 21 11 SE 1030,1 0,2 0 0,0
16.11.2018 09:00:00 2,6 2,6 2,9 4,9 6,6 11,0 11 6 18 10 SE 1030,0 0,3 0 0,0
16.11.2018 08:00:00 2,8 2,8 2,9 5,0 6,7 11,0 5 3 17 9 SE 1029,7 0,2 0 0,0
16.11.2018 07:00:00 2,5 2,5 2,6 5,1 6,8 11,1 7 4 12 7 SE 1029,0 0,1 0 0,0
16.11.2018 06:00:00 2,9 2,9 3,1 5,2 6,9 11,1 6 4 15 8 SE 1028,5 0,2 0 0,0
16.11.2018 05:00:00 3,2 3,2 3,3 5,4 6,9 11,1 8 5 17 9 SE 1028,5 0,3 0 0,0
16.11.2018 04:00:00 3,8 3,8 3,9 5,5 7,0 11,1 9 5 18 10 SSE 1028,0 0,2 0 0,0
16.11.2018 03:00:00 4,1 4,1 4,2 5,6 7,0 11,1 11 6 19 11 SSE 1027,8 0,4 0 0,0
16.11.2018 02:00:00 4,3 4,2 4,2 5,6 7,1 11,1 11 6 19 11 SSE 1027,7 2,1 0 0,0
16.11.2018 01:00:00 4,3 4,3 4,3 5,6 7,1 11,1 10 5 21 12 SSE 1027,5 2,1 0 0,0
16.11.2018 00:00:00 4,2 4,2 4,2 5,6 7,2 11,1 10 6 25 13 SSE 1027,4 1,2 0 0,0
15.11.2018 23:00:00 4,2 4,2 4,3 5,6 7,3 11,1 14 7 24 13 SSE 1027,3 1,5 0 0,0
15.11.2018 22:00:00 4,2 4,1 4,1 5,5 7,5 11,2 18 10 30 16 SSE 1026,9 2,5 0 0,0
15.11.2018 21:00:00 4,0 3,8 4,1 5,8 7,6 11,2 17 9 24 13 SSE 1026,8 0,7 0 0,0
15.11.2018 20:00:00 4,0 3,8 4,1 6,0 7,8 11,2 16 9 29 16 SSE 1026,8 0,3 0 0,0
15.11.2018 19:00:00 4,5 4,1 4,5 6,2 8,0 11,2 20 11 31 17 SE 1026,6 0,2 0 0,0
15.11.2018 18:00:00 5,5 4,6 4,6 6,3 8,2 11,2 16 9 24 13 SE 1026,2 5 0 0,0
15.11.2018 17:00:00 7,6 5,9 6,0 7,3 8,4 11,2 11 6 20 11 ESE 1025,9 13 31 0,0
15.11.2018 16:00:00 8,8 6,2 8,3 8,6 8,4 11,2 12 6 18 10 ESE 1026,2 17 60 0,0
15.11.2018 15:00:00 9,5 6,4 10,2 9,5 8,1 11,2 10 5 18 10 SE 1026,0 20 58 0,0
15.11.2018 14:00:00 9,4 6,2 10,6 9,6 7,8 11,2 14 7 21 12 SE 1026,1 22 60 0,0
15.11.2018 13:00:00 8,7 5,8 10,6 8,9 7,3 11,2 11 6 23 12 SE 1026,3 18 59 0,0
15.11.2018 12:00:00 7,7 5,3 9,8 7,7 7,0 11,2 12 7 19 10 SSE 1026,7 19 60 0,0
15.11.2018 11:00:00 6,3 4,7 8,1 6,1 6,8 11,2 13 7 21 11 SSE 1026,8 14 60 0,0
15.11.2018 10:00:00 5,4 4,0 5,9 4,9 6,9 11,2 15 8 20 11 SSE 1026,8 13 60 0,0
15.11.2018 09:00:00 4,7 3,7 3,8 4,4 7,0 11,3 14 8 21 11 SSE 1026,5 10 32 0,0
15.11.2018 08:00:00 4,6 3,6 3,4 4,6 7,2 11,3 15 8 26 14 S 1026,4 11 0 0,0
15.11.2018 07:00:00 5,3 4,3 3,9 4,8 7,4 11,3 15 8 24 13 SSE 1026,2 13 0 0,0
15.11.2018 06:00:00 5,4 4,6 4,2 4,9 7,6 11,3 16 9 21 12 SSE 1026,1 10 0 0,0
15.11.2018 05:00:00 5,5 4,6 4,3 5,3 7,8 11,3 12 7 22 12 SE 1025,9 8 0 0,0
15.11.2018 04:00:00 6,3 5,2 5,0 5,6 8,1 11,3 15 8 22 12 SSE 1025,8 11 0 0,0
15.11.2018 03:00:00 6,5 5,3 5,2 5,9 8,3 11,3 12 7 20 11 SSE 1026,0 11 0 0,0
15.11.2018 02:00:00 6,9 5,6 5,6 6,2 8,5 11,3 13 7 21 11 SSE 1026,0 12 0 0,0
15.11.2018 01:00:00 7,3 6,0 6,0 6,5 8,7 11,3 13 7 19 11 SSE 1026,0 11 0 0,0
15.11.2018 00:00:00 7,4 6,0 6,0 6,8 9,0 11,3 12 7 18 10 SSE 1026,2 12 0 0,0
14.11.2018 23:00:00 7,6 6,2 6,4 7,3 9,2 11,3 14 7 22 12 SSE 1026,3 13 0 0,0
14.11.2018 22:00:00 8,2 6,8 7,0 7,8 9,4 11,3 14 7 20 11 SSE 1026,2 13 0 0,0
14.11.2018 21:00:00 8,9 7,2 7,8 8,2 9,6 11,3 15 8 27 15 S 1026,3 15 0 0,0
14.11.2018 20:00:00 9,7 7,7 8,6 8,8 9,8 11,3 16 9 27 15 S 1026,1 21 0 0,0
14.11.2018 19:00:00 10,2 8,1 9,4 9,3 9,9 11,3 16 8 26 14 S 1026,1 25 0 0,0
14.11.2018 18:00:00 10,5 8,2 9,9 9,7 10,0 11,3 16 9 29 15 S 1026,0 27 0 0,0
14.11.2018 17:00:00 10,7 8,2 10,3 10,1 10,1 11,3 16 8 29 16 S 1025,9 27 0 0,0
14.11.2018 16:00:00 10,9 8,3 10,5 10,7 10,1 11,3 18 10 29 16 S 1026,1 29 0 0,0
14.11.2018 15:00:00 11,2 8,2 11,4 11,7 9,9 11,3 20 11 31 17 S 1026,0 25 33 0,0
14.11.2018 14:00:00 11,9 8,5 13,7 12,0 9,4 11,3 18 10 37 20 S 1026,2 25 55 0,0
14.11.2018 13:00:00 10,6 8,3 11,5 10,7 9,1 11,3 22 12 31 17 S 1026,5 23 55 0,0
14.11.2018 12:00:00 9,7 8,2 10,2 9,8 8,9 11,3 19 10 30 16 S 1026,9 17 52 0,0
14.11.2018 11:00:00 8,9 8,0 9,9 9,2 8,8 11,3 18 10 31 17 S 1027,3 9 58 0,0
14.11.2018 10:00:00 8,0 7,7 7,8 8,4 8,7 11,3 20 11 30 16 S 1026,9 3,7 5 0,0
14.11.2018 09:00:00 8,0 7,8 8,0 8,4 8,7 11,3 21 11 31 17 S 1026,6 0,7 0 0,0
14.11.2018 08:00:00 8,2 8,0 8,2 8,3 8,6 11,3 19 10 33 18 SSW 1026,4 0,5 0 0,0
14.11.2018 07:00:00 8,5 8,3 8,4 8,3 8,6 11,3 16 9 30 16 SSW 1026,2 1,2 0 0,0
14.11.2018 06:00:00 8,5 8,2 8,4 8,1 8,5 11,3 17 9 31 17 SSW 1026,0 0,8 0 0,0
14.11.2018 05:00:00 8,1 7,6 8,0 7,8 8,5 11,3 19 10 33 18 SSW 1025,9 0,8 0 0,0
14.11.2018 04:00:00 8,9 8,0 8,5 7,3 8,5 11,3 14 8 27 15 SSW 1026,1 8 0 0,0
14.11.2018 03:00:00 9,0 7,8 7,9 7,3 8,6 11,3 19 10 33 18 SW 1026,3 12 0 0,0
14.11.2018 02:00:00 9,0 7,7 8,0 7,3 8,8 11,3 21 11 30 16 SW 1026,0 17 0 0,0
14.11.2018 01:00:00 9,0 7,7 7,7 7,4 8,9 11,3 19 10 33 18 SW 1025,8 18 0 0,0
14.11.2018 00:00:00 9,2 7,6 7,9 7,6 9,1 11,4 21 11 34 18 SW 1025,4 18 0 0,0
13.11.2018 23:00:00 9,4 7,4 8,1 8,0 9,2 11,4 21 11 35 19 SW 1024,7 21 0 0,0
13.11.2018 22:00:00 9,6 7,5 9,1 8,6 9,3 11,4 21 11 35 19 SW 1024,2 25 0 0,0
13.11.2018 21:00:00 9,7 7,7 9,2 8,7 9,3 11,4 24 13 41 22 SW 1023,5 23 0 0,0
13.11.2018 20:00:00 10,0 7,7 9,2 8,8 9,4 11,4 24 13 40 22 WSW 1023,0 15 0 0,0
13.11.2018 19:00:00 10,3 7,9 9,7 8,7 9,4 11,4 23 12 43 23 SW 1022,3 23 0 0,0
13.11.2018 18:00:00 10,3 7,7 9,3 8,5 9,6 11,4 25 13 44 24 SW 1021,5 22 0 0,0
13.11.2018 17:00:00 10,5 7,9 9,3 9,1 9,7 11,4 24 13 51 28 WSW 1020,7 20 6 0,0
13.11.2018 16:00:00 11,0 7,9 10,3 10,0 9,7 11,4 28 15 43 23 WSW 1019,7 20 53 0,0
13.11.2018 15:00:00 11,1 8,3 11,3 10,5 9,6 11,4 26 14 49 26 SW 1018,7 22 38 0,0
13.11.2018 14:00:00 11,0 8,1 11,6 10,7 9,3 11,4 29 15 45 25 SW 1018,1 36 51 0,0
13.11.2018 13:00:00 10,8 8,0 11,5 10,2 9,1 11,4 27 15 44 24 SW 1017,7 28 34 0,0
13.11.2018 12:00:00 10,4 8,1 10,4 9,4 8,9 11,4 25 14 44 24 SSW 1017,4 19 0 0,0
13.11.2018 11:00:00 9,9 8,3 9,2 9,0 8,7 11,4 24 13 43 23 SSW 1017,3 7 0 0,0
13.11.2018 10:00:00 9,5 8,4 9,1 8,4 8,6 11,4 23 12 45 24 SSW 1016,8 9 4 0,0
13.11.2018 09:00:00 8,7 7,8 8,1 7,7 8,6 11,4 22 12 39 21 SSW 1016,3 7 0 0,0
13.11.2018 08:00:00 8,4 7,4 7,7 7,5 8,7 11,4 23 12 36 19 S 1016,0 8 0 0,0
13.11.2018 07:00:00 8,8 7,8 7,9 7,7 8,8 11,4 19 10 38 20 S 1015,7 8 0 0,0
13.11.2018 06:00:00 8,8 7,7 7,9 7,7 8,9 11,4 21 11 38 20 S 1015,7 8 0 0,0
13.11.2018 05:00:00 8,8 7,6 7,8 7,7 9,0 11,4 23 12 38 20 S 1015,7 8 0 0,0
13.11.2018 04:00:00 9,0 7,7 7,9 7,9 9,0 11,4 22 12 33 18 S 1016,1 9 0 0,0
13.11.2018 03:00:00 9,2 8,0 8,3 8,1 9,1 11,4 22 12 34 18 S 1016,3 7 0 0,0
13.11.2018 02:00:00 9,1 8,1 8,2 8,2 9,2 11,4 21 11 34 18 S 1016,2 8 0 0,0
13.11.2018 01:00:00 9,2 8,5 8,2 8,3 9,2 11,4 20 11 31 17 S 1016,0 6 0 0,1
13.11.2018 00:00:00 9,1 8,6 8,5 8,3 9,3 11,4 19 10 29 15 S 1016,0 4,7 0 0,0
12.11.2018 23:00:00 9,0 8,6 8,2 8,3 9,4 11,4 16 9 26 14 SSW 1015,9 4,4 0 0,0
12.11.2018 22:00:00 9,0 8,8 8,3 8,4 9,5 11,4 14 7 26 14 S 1015,7 3,6 0 0,0
12.11.2018 21:00:00 9,2 8,9 8,7 8,5 9,7 11,4 17 9 24 13 S 1015,6 3,4 0 0,0
12.11.2018 20:00:00 9,3 9,0 8,6 8,7 9,9 11,4 10 5 18 10 SSW 1015,1 5 0 0,0
12.11.2018 19:00:00 9,6 9,3 8,7 9,1 10,0 11,4 10 5 17 9 SSW 1014,3 3,7 0 0,0
12.11.2018 18:00:00 10,0 9,7 9,3 9,8 10,1 11,4 9 5 15 8 SSW 1013,7 3,0 0 0,0
12.11.2018 17:00:00 10,2 9,9 9,8 10,2 10,1 11,4 10 5 16 9 SSW 1013,4 3,3 0 0,0

tt = Température de l'air
td = dewpoint
tt 5cm = Température de l'air 5cm
tt -5cm = Température de l'air -5cm
tt -20cm = Température de l'air -20cm
tt -100cm = Température de l'air -100cm
ff = Vitesse du vent
fx = gusts
dd = Direction du vent
ppp = reduced air pressure
vv = visibility
sd = Ensoleillement
rr = Quantités de précipitations

stations d'obs. à proximité